Starlink 11294

operational
NORAD ID: 61054 Int'l Des: 2024-164 Owner: SPXS Country: US Constellation: starlink
LEOCIRCULAR

About Starlink 11294

Description loading...

Live Position

Loading 3D Globe...

Upcoming Passes

Altitude History

Altitude vs Time

uPlot chart will show altitude changes over time

Two-Line Element Set

1 61054U 24164E 26036.67615923 .00001153 00000-0 14362-4 0 9999
2 61054 53.1585 108.8735 0001090 96.6124 263.5018 15.69727126 80396
Epoch: Feb 5, 2026 • Age: 14 hours

Current Status

Altitude 365.2 km
Velocity 7.70 km/s
Sub-Earth Point 51.78°N, 54.02°W
Launch Date Sep 13, 2024
Age 1.3 years
Type internet

Technical Details

Classification Payload
Mass 960.00 kg
Dry Mass 910.00 kg
Total Mass 960.00 kg
Length 0.30 m
Diameter 4.10 m
Span 29.00 m
Shape Box + pan
Manufacturer SPXS
Bus Type Starlink V2MD
Phase Status In Orbit
Owner/State SPXS/US

Large Constellations

Loading constellations...